Home   Weather   Paamiut   Past weeks
Flag for Greenland

Past Weather in Paamiut, Greenland — Yesterday and Last 2 Weeks

Now
42 °F

Overcast.


Feels Like: 37 °F
Forecast: 40 / 38 °F
Wind: 8 mph from Southeast

Location: Frederikshaab

Current Time: Oct 17, 2019 at 4:07:17 am

Latest Report: Oct 17, 2019 at 3:00 am


Visibility: 28 mi

Pressure: 29.85 "Hg

Humidity: 40%

Dew Point: 20 °F

Location of PaamiutLocation

Past Weather in Paamiut — Graph

°F

Paamiut Temperature Yesterday

Maximum temperature yesterday: 43 °F (at 11:00 pm)
Minimum temperature yesterday: 30 °F (at 12:00 am)
Average temperature yesterday: 37 °F

High & Low Weather Summary for the Past Weeks

 TemperatureHumidityPressure
High58 °F (Oct 2, 12:00 pm)96% (Oct 13, 12:00 am)30.17 "Hg (Oct 13, 12:00 am)
Low29 °F (Oct 15, 9:00 am)22% (Oct 2, 11:00 am)28.82 "Hg (Oct 5, 2:00 am)
Average40 °F67%29.62 "Hg
* Reported Oct 2 2:00 am — Oct 17 2:00 am, Paamiut. Weather by CustomWeather, © 2019

Note: Actual official high and low records may vary slightly from our data, if they occured in-between our weather recording intervals... More about our weather records

Advertising

Paamiut Weather History for the Previous 24 Hours

Scroll right to see more
 ConditionsComfort  
Time TempWeatherWind HumidityBarometerVisibility
2:00 am
Thu, Oct 17
44 °FOvercast.10 mph38%29.86 "Hg28 mi
1:00 am43 °FOvercast.12 mph39%29.88 "Hg31 mi
12:00 am43 °FOvercast.12 mph39%29.90 "Hg28 mi
11:00 pm
Wed, Oct 16
43 °FOvercast.13 mph39%29.92 "Hg31 mi
10:00 pm42 °FOvercast.14 mph42%29.92 "Hg28 mi
9:00 pm43 °FOvercast.16 mph38%29.93 "Hg31 mi
8:00 pm42 °FOvercast.15 mph43%29.94 "Hg31 mi
7:00 pm36 °FOvercast.6 mph77%29.95 "Hg14 mi
6:00 pm36 °FOvercast.6 mph79%29.96 "Hg11 mi
5:00 pm38 °FPassing clouds.8 mph77%29.96 "Hg11 mi
4:00 pm39 °FChilly.7 mph75%29.96 "Hg11 mi
3:00 pm39 °FChilly.15 mph72%29.96 "Hg10 mi
2:00 pm39 °FChilly.12 mph73%29.97 "Hg10 mi
1:00 pm39 °FChilly.14 mph73%29.98 "Hg10 mi
12:00 pm39 °FChilly.9 mph60%29.98 "Hg25 mi
11:00 am39 °FChilly.6 mph46%29.97 "Hg28 mi
10:00 am35 °FChilly.5 mph46%29.97 "Hg31 mi
9:00 am34 °FChilly.3 mph42%29.97 "Hg31 mi
8:00 am33 °FChilly.2 mph47%29.97 "Hg28 mi
7:00 am34 °FChilly.No wind54%29.97 "Hg28 mi
6:00 am34 °FChilly.1 mph42%29.97 "Hg28 mi
5:00 am33 °FChilly.6 mph48%29.96 "Hg31 mi
4:00 am36 °FChilly.8 mph48%29.96 "Hg31 mi
Weather by CustomWeather, © 2019

See weather overview